DW2227 Weather Reports


Display with metric or nautical units.
time (UTC)temp
F
wind
direction
speed
MPH
gust
MPH
rain 1hr
in
rain 24hr
in
rain mn
in
humidity
%
barometer
mb
20260831072328 76 30 0.0 2.0 0.00 0.03 0.00 74 1012.6
20260831071823 76 125 0.0 3.0 0.00 0.03 0.00 74 1012.7
20260831071319 76 91 0.0 3.0 0.00 0.03 0.00 74 1012.8
20260831070827 76 91 0.0 2.0 0.00 0.03 0.00 74 1012.8
20260831070319 76 138 0.0 2.0 0.00 0.03 0.00 74 1012.8
20260831065831 76 92 0.0 1.0 0.00 0.03 0.00 75 1012.8
20260831065346 76 61 0.0 1.0 0.00 0.03 0.00 75 1012.9
20260831064817 76 68 0.0 2.0 0.00 0.03 0.00 75 1012.9
20260831064332 76 70 0.0 2.0 0.00 0.03 0.00 75 1012.9
20260831063828 77 136 0.0 2.0 0.00 0.03 0.00 75 1012.9
20260831063343 77 136 0.0 2.0 0.00 0.03 0.00 75 1012.8
20260831062831 77 125 0.0 1.0 0.00 0.03 0.00 75 1012.9
20260831062325 77 124 0.0 2.0 0.00 0.03 0.00 74 1012.9
20260831061820 77 136 0.0 2.0 0.00 0.03 0.00 74 1012.9
20260831061333 77 171 0.0 3.0 0.00 0.03 0.00 74 1013.0
20260831060827 77 104 0.0 3.0 0.00 0.03 0.00 74 1013.1
20260831060322 77 127 0.0 2.0 0.00 0.03 0.00 74 1013.0
20260831055818 77 90 0.0 0.0 0.00 0.03 0.00 75 1013.1
20260831055334 77 101 0.0 1.0 0.00 0.03 0.00 74 1013.1
20260831054829 77 101 0.0 1.0 0.00 0.03 0.00 74 1013.0
20260831054322 77 38 0.0 1.0 0.00 0.03 0.00 76 1013.1
20260831053817 77 26 0.0 2.0 0.00 0.03 0.00 75 1013.0
20260831053331 77 126 0.0 2.0 0.00 0.03 0.00 74 1013.0
20260831052826 77 94 0.0 2.0 0.00 0.03 0.00 75 1013.1
20260831052322 77 154 0.0 1.0 0.00 0.03 0.00 75 1013.1
20260831051817 77 146 0.0 1.0 0.00 0.03 0.03 76 1013.2
20260831051332 77 134 0.0 2.0 0.00 0.03 0.03 76 1013.0
20260831050823 77 75 0.0 2.0 0.00 0.03 0.03 75 1013.0
20260831050354 78 111 0.0 2.0 0.00 0.03 0.03 75 1013.0
20260831045822 78 69 0.0 2.0 0.00 0.03 0.03 76 1013.0
20260831045316 78 60 0.0 2.0 0.00 0.03 0.03 76 1013.0
20260831044832 78 95 0.0 2.0 0.00 0.03 0.03 76 1013.1
20260831044325 78 114 0.0 2.0 0.00 0.03 0.03 77 1013.2
20260831043840 78 98 0.0 2.0 0.00 0.03 0.03 77 1013.3
20260831043354 78 99 0.0 2.0 0.00 0.03 0.03 78 1013.4
20260831042825 78 113 0.0 2.0 0.00 0.03 0.03 78 1013.4
20260831042320 78 111 0.0 1.0 0.00 0.03 0.03 79 1013.4
20260831041855 78 111 0.0 1.0 0.00 0.03 0.03 79 1013.4
20260831041327 78 111 0.0 2.0 0.00 0.03 0.03 79 1013.4
20260831040821 78 150 0.0 3.0 0.00 0.03 0.03 79 1013.3
20260831040318 78 151 1.0 3.0 0.00 0.03 0.03 79 1013.4
20260831035853 78 79 0.0 1.0 0.00 0.03 0.03 79 1013.4
20260831035326 78 80 0.0 2.0 0.00 0.03 0.03 79 1013.4
20260831034821 78 116 0.0 2.0 0.00 0.03 0.03 79 1013.4
20260831034336 78 87 0.0 1.0 0.00 0.03 0.03 80 1013.5
20260831033833 78 92 0.0 1.0 0.00 0.03 0.03 80 1013.6
20260831033347 78 96 0.0 2.0 0.00 0.03 0.03 80 1013.6
20260831032819 78 89 0.0 2.0 0.00 0.03 0.03 80 1013.6
20260831032317 78 122 0.0 2.0 0.00 0.03 0.03 81 1013.7
20260831031847 78 119 0.0 2.0 0.00 0.03 0.03 81 1013.8
20260831031322 78 113 0.0 1.0 0.00 0.03 0.03 81 1013.8
20260831030836 78 113 0.0 1.0 0.00 0.03 0.03 82 1013.7
20260831030330 78 119 0.0 2.0 0.00 0.03 0.03 82 1013.7
20260831025825 78 119 0.0 2.0 0.00 0.03 0.03 82 1013.7
20260831025320 79 115 0.0 2.0 0.00 0.03 0.03 82 1013.7
20260831024835 79 98 0.0 3.0 0.00 0.03 0.03 82 1013.6
20260831024330 79 98 0.0 3.0 0.00 0.03 0.03 82 1013.6
20260831023824 78 102 0.0 3.0 0.00 0.03 0.03 82 1013.6
20260831023318 78 105 0.0 2.0 0.00 0.03 0.03 82 1013.5
20260831022835 78 97 0.0 3.0 0.00 0.03 0.03 83 1013.7
20260831022328 78 121 1.0 3.0 0.00 0.03 0.03 83 1013.7
20260831021842 78 108 0.0 1.0 0.00 0.03 0.03 84 1013.6
20260831021357 78 108 0.0 1.0 0.00 0.03 0.03 84 1013.7
20260831020830 78 108 0.0 2.0 0.00 0.03 0.03 84 1013.5
20260831020324 78 108 0.0 2.0 0.00 0.03 0.03 84 1013.5
20260831015819 78 108 0.0 1.0 0.00 0.03 0.03 84 1013.4
20260831015332 78 108 0.0 1.0 0.00 0.03 0.03 85 1013.3
20260831014828 78 108 0.0 2.0 0.00 0.03 0.03 85 1013.3
20260831014322 78 108 0.0 2.0 0.00 0.03 0.03 85 1013.3
20260831013836 78 108 0.0 3.0 0.00 0.03 0.03 85 1013.2
20260831013353 78 130 0.0 2.0 0.00 0.03 0.03 85 1013.4
20260831012825 78 103 0.0 2.0 0.00 0.03 0.03 85 1013.3
20260831012318 78 116 0.0 2.0 0.00 0.03 0.03 85 1013.1
20260831011832 78 104 0.0 2.0 0.00 0.03 0.03 85 1013.2
20260831011324 78 133 0.0 1.0 0.00 0.03 0.03 85 1013.1
20260831010818 78 103 0.0 2.0 0.00 0.03 0.03 85 1013.1
20260831010332 78 117 0.0 2.0 0.00 0.03 0.03 85 1013.0
20260831005825 79 115 0.0 2.0 0.00 0.03 0.03 85 1013.0
20260831005319 79 99 0.0 2.0 0.00 0.03 0.03 85 1013.0
20260831004850 79 113 0.0 2.0 0.00 0.03 0.03 85 1013.1
20260831004322 79 105 0.0 2.0 0.00 0.03 0.03 85 1013.2
20260831003818 79 128 0.0 1.0 0.00 0.03 0.03 84 1013.3
20260831003329 79 139 0.0 1.0 0.00 0.03 0.03 84 1013.3
20260831002844 79 107 0.0 2.0 0.00 0.03 0.03 84 1013.3
20260831002320 79 113 0.0 3.0 0.00 0.03 0.03 84 1013.2
20260831001834 79 104 0.0 3.0 0.00 0.03 0.03 84 1013.3
20260831001348 79 98 0.0 1.0 0.00 0.03 0.03 84 1013.3
20260831000823 79 98 0.0 1.0 0.00 0.03 0.03 84 1013.4
20260831000318 79 98 0.0 1.0 0.00 0.03 0.03 84 1013.4
20260830235850 79 98 0.0 1.0 0.00 0.03 0.03 84 1013.4
20260830235344 79 98 0.0 1.0 0.00 0.03 0.03 84 1013.4
20260830234819 79 98 0.0 0.0 0.00 0.03 0.03 84 1013.5
20260830234355 79 98 0.0 0.0 0.00 0.03 0.03 84 1013.5
20260830233825 80 98 0.0 0.0 0.00 0.03 0.03 84 1013.5
20260830233320 80 98 0.0 1.0 0.00 0.03 0.03 83 1013.7
20260830232817 80 98 0.0 1.0 0.00 0.03 0.03 83 1013.7
20260830232332 80 98 0.0 1.0 0.00 0.03 0.03 83 1013.6
20260830231824 80 98 0.0 0.0 0.00 0.03 0.03 83 1013.7
20260830231354 80 88 0.0 1.0 0.00 0.03 0.03 83 1013.8
20260830230828 79 88 0.0 1.0 0.00 0.03 0.03 83 1013.7
20260830230343 79 123 0.0 1.0 0.00 0.03 0.03 84 1013.7
20260830225817 79 129 0.0 0.0 0.00 0.03 0.03 83 1013.5
20260830225353 79 129 0.0 1.0 0.00 0.03 0.03 83 1013.5
20260830224825 79 129 0.0 2.0 0.00 0.03 0.03 82 1013.4
20260830224319 79 129 0.0 2.0 0.00 0.03 0.03 82 1013.4
20260830223834 79 94 0.0 1.0 0.00 0.03 0.03 82 1013.3
20260830223328 79 96 0.0 1.0 0.00 0.03 0.03 82 1013.3
20260830222824 79 92 0.0 0.0 0.00 0.03 0.03 83 1013.3
20260830222318 79 92 0.0 1.0 0.00 0.03 0.03 83 1013.3
20260830221833 79 92 0.0 1.0 0.00 0.03 0.03 84 1013.3
20260830221328 78 91 0.0 1.0 0.00 0.03 0.03 85 1013.3
20260830220824 78 91 0.0 1.0 0.00 0.03 0.03 85 1013.2
20260830220338 78 115 0.0 1.0 0.00 0.03 0.03 86 1013.1
20260830215832 78 115 0.0 0.0 0.00 0.03 0.03 86 1013.8
20260830215325 78 115 0.0 0.0 0.00 0.03 0.03 86 1013.7
20260830214820 78 115 0.0 1.0 0.00 0.03 0.03 86 1013.8
20260830214334 78 115 0.0 1.0 0.00 0.03 0.03 86 1014.0
20260830213828 78 73 0.0 0.0 0.00 0.03 0.03 86 1014.0
20260830213320 78 73 0.0 0.0 0.00 0.03 0.03 87 1013.9
20260830212836 78 73 0.0 0.0 0.00 0.03 0.03 87 1014.0
20260830212330 78 73 0.0 0.0 0.00 0.03 0.03 86 1014.1
20260830211825 78 73 0.0 0.0 0.00 0.03 0.03 86 1014.0
20260830211322 78 73 0.0 0.0 0.00 0.03 0.03 86 1014.1
20260830210817 78 73 0.0 0.0 0.00 0.03 0.03 86 1014.4
20260830210329 78 73 0.0 0.0 0.00 0.03 0.03 86 1014.4
20260830205824 78 73 0.0 0.0 0.00 0.03 0.03 86 1014.5
20260830205319 77 73 0.0 0.0 0.00 0.03 0.03 86 1014.6
20260830204835 77 73 0.0 1.0 0.00 0.03 0.03 87 1014.6
20260830204329 77 73 0.0 1.0 0.00 0.03 0.03 87 1014.5
20260830203823 77 28 0.0 0.0 0.00 0.03 0.03 87 1014.6
20260830203320 77 28 0.0 0.0 0.00 0.03 0.03 87 1014.7
20260830202835 77 28 0.0 0.0 0.00 0.03 0.03 87 1014.9
20260830202349 77 28 0.0 0.0 0.00 0.03 0.03 87 1014.9
20260830201823 77 28 0.0 0.0 0.00 0.03 0.03 88 1014.8
20260830201317 77 28 0.0 1.0 0.01 0.03 0.03 86 1014.7
20260830200832 76 28 0.0 1.0 0.01 0.03 0.03 87 1014.8
20260830200325 76 28 0.0 0.0 0.01 0.03 0.03 87 1014.9
20260830195819 76 120 0.0 0.0 0.01 0.03 0.03 87 1015.0
20260830195334 76 110 0.0 0.0 0.01 0.03 0.03 88 1014.9
20260830194827 76 110 0.0 0.0 0.01 0.03 0.03 87 1015.0
20260830194323 75 80 0.0 0.0 0.01 0.03 0.03 87 1014.9
20260830193819 75 80 0.0 1.0 0.01 0.03 0.03 87 1014.6
20260830193333 75 80 0.0 1.0 0.01 0.03 0.03 87 1014.4
20260830192826 76 79 0.0 0.0 0.01 0.03 0.03 87 1014.3
20260830192321 76 79 0.0 0.0 0.01 0.03 0.03 86 1014.2
20260830191817 76 79 0.0 0.0 0.00 0.02 0.02 85 1014.4
20260830191332 76 79 0.0 0.0 0.00 0.02 0.02 84 1014.5
20260830190847 77 79 0.0 0.0 0.00 0.02 0.02 83 1014.7
20260830190342 78 79 0.0 0.0 0.00 0.02 0.02 82 1014.9
20260830185835 78 79 0.0 0.0 0.00 0.02 0.02 82 1014.7
20260830185329 79 79 0.0 0.0 0.00 0.02 0.02 81 1015.0
20260830184824 79 79 0.0 1.0 0.00 0.02 0.02 79 1015.0
20260830184319 79 62 0.0 1.0 0.00 0.02 0.02 77 1015.1
20260830183827 80 217 0.0 1.0 0.00 0.02 0.02 76 1015.5
20260830183322 80 217 0.0 1.0 0.00 0.02 0.02 75 1015.8
20260830182818 80 187 0.0 0.0 0.00 0.02 0.02 76 1015.8
20260830182352 80 187 0.0 1.0 0.00 0.02 0.02 75 1015.7
20260830181825 79 187 0.0 1.0 0.00 0.02 0.02 76 1015.5
20260830181339 80 177 0.0 2.0 0.00 0.02 0.02 74 1015.5
20260830180833 80 237 0.0 2.0 0.00 0.02 0.02 74 1015.3
20260830180327 80 304 0.0 2.0 0.00 0.02 0.02 74 1015.3
20260830175820 80 248 0.0 1.0 0.00 0.02 0.02 74 1014.8
20260830175333 80 248 0.0 3.0 0.00 0.02 0.02 73 1014.6
20260830174829 80 233 0.0 3.0 0.00 0.02 0.02 71 1014.7
20260830174323 80 346 0.0 4.0 0.00 0.02 0.02 73 1014.8
20260830173818 80 55 0.0 4.0 0.00 0.02 0.02 73 1014.7
20260830173333 79 106 0.0 1.0 0.00 0.02 0.02 73 1014.6
20260830172826 79 19 0.0 2.0 0.00 0.02 0.02 74 1014.6
20260830172317 78 167 0.0 2.0 0.00 0.02 0.02 75 1014.7
20260830171831 78 355 0.0 0.0 0.00 0.02 0.02 77 1014.6
20260830171326 77 355 0.0 0.0 0.00 0.02 0.02 78 1014.5
20260830170822 77 355 0.0 0.0 0.00 0.02 0.02 77 1014.8
20260830170316 77 355 0.0 0.0 0.00 0.02 0.02 75 1015.0
20260830165832 78 343 0.0 1.0 0.00 0.02 0.02 75 1014.8
20260830165327 78 113 0.0 2.0 0.00 0.02 0.02 74 1014.6
20260830164841 78 273 0.0 4.0 0.00 0.02 0.02 73 1014.7
20260830164332 78 248 1.0 4.0 0.00 0.02 0.02 72 1014.6
20260830163827 78 223 1.0 5.0 0.00 0.02 0.02 71 1014.4
20260830163322 78 360 0.0 9.0 0.00 0.02 0.02 74 1014.1
20260830162836 77 293 2.0 9.0 0.00 0.02 0.02 73 1013.9
20260830162329 76 120 1.0 3.0 0.00 0.02 0.02 76 1013.8
20260830161824 76 62 1.0 2.0 0.00 0.02 0.02 75 1013.8
20260830161320 76 306 0.0 4.0 0.00 0.02 0.02 75 1014.0
20260830160832 77 26 1.0 4.0 0.00 0.02 0.02 73 1013.9
20260830160325 77 142 0.0 4.0 0.00 0.02 0.02 75 1013.8
20260830155821 76 36 1.0 4.0 0.00 0.02 0.02 77 1013.7
20260830155335 75 72 1.0 3.0 0.00 0.02 0.02 77 1013.9
20260830154828 75 136 1.0 3.0 0.00 0.02 0.02 78 1013.7
20260830154343 74 36 1.0 3.0 0.00 0.02 0.02 78 1014.0
20260830153833 74 355 0.0 3.0 0.00 0.02 0.02 78 1013.9
20260830153326 74 202 0.0 2.0 0.00 0.02 0.02 79 1014.0
20260830152822 74 318 0.0 2.0 0.00 0.02 0.02 79 1014.2
20260830152336 74 351 0.0 2.0 0.00 0.02 0.02 80 1014.0
20260830151828 73 113 0.0 4.0 0.01 0.02 0.02 80 1013.9
20260830151321 73 29 0.0 2.0 0.01 0.02 0.02 80 1013.8
20260830150817 72 39 0.0 2.0 0.01 0.02 0.02 81 1013.9
20260830150332 72 173 0.0 2.0 0.01 0.02 0.02 81 1014.0
20260830145825 72 242 0.0 1.0 0.01 0.02 0.02 82 1014.1
20260830145319 71 98 0.0 1.0 0.01 0.02 0.02 82 1014.2
20260830144835 71 317 0.0 2.0 0.01 0.02 0.02 82 1014.3
20260830144331 71 326 0.0 2.0 0.01 0.02 0.02 82 1014.2
20260830143824 71 101 0.0 1.0 0.01 0.02 0.02 82 1014.1
20260830143318 71 123 0.0 2.0 0.01 0.02 0.02 81 1014.1
20260830142852 72 293 0.0 2.0 0.01 0.02 0.02 82 1014.1
20260830142325 72 186 0.0 0.0 0.01 0.02 0.02 82 1013.8
20260830141819 73 186 0.0 1.0 0.00 0.01 0.01 80 1013.7
20260830141352 73 186 0.0 1.0 0.00 0.01 0.01 79 1013.5
20260830140845 73 88 0.0 5.0 0.00 0.01 0.01 77 1013.6
20260830140320 74 15 0.0 5.0 0.00 0.01 0.01 76 1013.8
20260830135833 74 263 0.0 3.0 0.00 0.01 0.01 75 1013.8
20260830135328 74 324 0.0 3.0 0.00 0.01 0.01 75 1013.8
20260830134823 74 117 0.0 3.0 0.00 0.01 0.01 75 1013.5
20260830134317 74 342 1.0 3.0 0.01 0.01 0.01 74 1013.3
20260830133826 74 95 0.0 5.0 0.01 0.01 0.01 75 1013.2
20260830133322 74 30 1.0 5.0 0.01 0.01 0.01 76 1013.1
20260830132838 73 172 2.0 5.0 0.01 0.01 0.01 75 1013.1
20260830132332 73 131 0.0 5.0 0.01 0.01 0.01 76 1013.1
20260830131826 72 267 0.0 4.0 0.01 0.01 0.01 77 1013.3
20260830131320 72 76 1.0 3.0 0.01 0.01 0.01 79 1013.3
20260830130842 72 152 0.0 3.0 0.01 0.01 0.01 79 1013.1
20260830130331 72 118 0.0 3.0 0.01 0.01 0.01 78 1013.3
20260830125825 72 108 0.0 5.0 0.01 0.01 0.01 79 1013.3
20260830125320 72 84 0.0 4.0 0.01 0.01 0.01 79 1013.4
20260830124834 73 155 0.0 3.0 0.01 0.01 0.01 78 1013.3
20260830124328 73 136 1.0 3.0 0.00 0.00 0.00 77 1013.2
20260830123825 73 207 0.0 3.0 0.00 0.00 0.00 76 1013.3
20260830123320 73 33 0.0 3.0 0.00 0.00 0.00 76 1013.3
20260830122854 73 111 0.0 2.0 0.00 0.00 0.00 77 1013.3
20260830122328 73 111 0.0 2.0 0.00 0.00 0.00 76 1013.2
20260830121824 73 54 1.0 2.0 0.00 0.00 0.00 76 1013.2
20260830121320 73 167 0.0 3.0 0.00 0.00 0.00 76 1013.2
20260830120835 73 342 1.0 3.0 0.00 0.00 0.00 76 1013.3
20260830120330 73 156 0.0 2.0 0.00 0.00 0.00 76 1013.3
20260830115825 73 323 0.0 3.0 0.00 0.00 0.00 76 1013.3
20260830115339 73 72 0.0 3.0 0.00 0.00 0.00 76 1013.2
20260830114835 73 322 0.0 2.0 0.00 0.00 0.00 76 1013.3
20260830114329 73 329 0.0 2.0 0.00 0.00 0.00 75 1013.2
20260830113823 73 165 0.0 4.0 0.00 0.00 0.00 75 1013.2
20260830113318 73 345 0.0 7.0 0.00 0.00 0.00 75 1013.1
20260830112849 73 115 1.0 4.0 0.00 0.00 0.00 75 1013.0
20260830112322 73 304 1.0 5.0 0.00 0.00 0.00 75 1013.0
20260830111817 73 37 1.0 5.0 0.00 0.00 0.00 75 1012.9
20260830111331 73 229 1.0 5.0 0.00 0.00 0.00 75 1012.9
20260830110825 73 284 1.0 5.0 0.00 0.00 0.00 75 1012.9
20260830110318 73 181 0.0 3.0 0.00 0.00 0.00 76 1012.7
20260830105833 73 164 0.0 3.0 0.00 0.00 0.00 76 1012.7
20260830105328 73 16 0.0 2.0 0.00 0.00 0.00 76 1012.8
20260830104823 73 108 0.0 4.0 0.00 0.00 0.00 76 1012.8
20260830104317 73 344 1.0 4.0 0.00 0.00 0.00 76 1012.8
20260830103833 73 312 1.0 4.0 0.00 0.00 0.00 76 1012.7
20260830103327 73 89 0.0 4.0 0.00 0.00 0.00 76 1012.7
20260830102822 73 131 0.0 4.0 0.00 0.00 0.00 76 1013.0
20260830102336 73 131 0.0 4.0 0.00 0.00 0.00 76 1013.0
20260830101824 73 360 0.0 2.0 0.00 0.00 0.00 77 1013.2
20260830101318 73 193 0.0 2.0 0.00 0.00 0.00 77 1013.1
20260830100832 73 107 0.0 2.0 0.00 0.00 0.00 77 1013.2
20260830100328 73 325 0.0 2.0 0.00 0.00 0.00 77 1013.1
20260830095824 72 299 0.0 3.0 0.00 0.00 0.00 77 1013.1
20260830095317 72 343 1.0 4.0 0.00 0.00 0.00 77 1013.1
20260830094830 72 152 1.0 4.0 0.00 0.00 0.00 78 1013.0
20260830094325 72 17 0.0 2.0 0.00 0.00 0.00 78 1013.0
20260830093819 72 188 0.0 1.0 0.00 0.00 0.00 78 1012.8
20260830093334 72 83 0.0 1.0 0.00 0.00 0.00 78 1012.9
20260830092849 72 129 0.0 2.0 0.00 0.00 0.00 78 1013.0
20260830092323 72 160 0.0 2.0 0.00 0.00 0.00 78 1013.1
20260830091818 72 89 0.0 1.0 0.00 0.00 0.00 78 1013.1
20260830091332 72 82 0.0 2.0 0.00 0.00 0.00 78 1013.1
20260830090828 73 22 0.0 2.0 0.00 0.00 0.00 78 1013.1
20260830090323 73 5 0.0 2.0 0.00 0.00 0.00 78 1013.1
20260830085819 73 313 0.0 2.0 0.00 0.00 0.00 78 1013.2
20260830085333 73 118 0.0 2.0 0.00 0.00 0.00 77 1013.2
20260830084845 73 30 0.0 2.0 0.00 0.00 0.00 78 1013.3
20260830084336 73 222 0.0 1.0 0.00 0.00 0.00 78 1013.2
20260830083850 73 269 0.0 2.0 0.00 0.00 0.00 77 1013.1
20260830083324 73 329 0.0 2.0 0.00 0.00 0.00 77 1013.2
20260830082819 73 59 0.0 4.0 0.00 0.00 0.00 77 1013.2
20260830082355 73 62 0.0 4.0 0.00 0.00 0.00 77 1013.2
20260830081829 73 360 0.0 3.0 0.00 0.00 0.00 77 1013.1
20260830081324 73 205 1.0 3.0 0.00 0.00 0.00 76 1013.1
20260830080818 73 46 0.0 1.0 0.00 0.00 0.00 76 1013.0
20260830080332 73 36 0.0 2.0 0.00 0.00 0.00 76 1013.0
20260830075829 73 355 0.0 8.0 0.00 0.00 0.00 76 1013.0
20260830075343 74 355 0.0 8.0 0.00 0.00 0.00 76 1013.2
20260830074816 74 293 0.0 3.0 0.00 0.00 0.00 76 1013.2
20260830074333 74 309 0.0 3.0 0.00 0.00 0.00 76 1013.3
20260830073847 74 113 0.0 2.0 0.00 0.00 0.00 75 1013.3
20260830073319 74 44 0.0 2.0 0.00 0.00 0.00 75 1013.3
20260830072856 74 23 0.0 2.0 0.00 0.00 0.00 75 1013.2